Location: Poughquag
(41.6090°N, 73.6820°W)
Time: 10:28:18
(UTC-05:00)

Vanguard 1 - Pass Details

Date: 06 December 2023
Orbit: 653 x 3826 km, 34.3° (Epoch: 25 February)

Event Time Altitude Azimuth Distance (km) Brightness Sun altitude
Rises 01:43:13 0° 282° (WNW) 7,958 - -58.8°
Reaches altitude 10° 01:51:57 10° 266° (W) 6,878 - -57.4°
Maximum altitude 02:03:23 17° 235° (SW) 5,870 - -55.4°
Drops below altitude 10° 02:13:15 10° 202° (SSW) 5,755 - -53.7°
Sets 02:19:33 0° 184° (S) 6,176 - -52.6°
